TimeEST,TemperatureF,Dew PointF,Humidity,Sea Level PressureIn,VisibilityMPH,Wind Direction,Wind SpeedMPH,Gust SpeedMPH,PrecipitationIn,Events,Conditions,WindDirDegrees,DateUTC
12:00 AM,34.0,31.6,91,30.49,-9999.0,SE,4.6,-,N/A,,Unknown,130,2012-11-19 05:00:00
1:00 AM,33,32,92,30.47,,ESE,4.6,,,,,120,2012-11-19 06:00:00
1:00 AM,33.3,31.6,94,30.47,-9999.0,ESE,4.6,-,N/A,,Unknown,120,2012-11-19 06:00:00
2:00 AM,33.4,31.8,94,30.46,-9999.0,ESE,4.6,-,N/A,,Unknown,120,2012-11-19 07:00:00
3:00 AM,34.0,32.9,96,30.45,-9999.0,ESE,3.5,-,N/A,,Unknown,110,2012-11-19 08:00:00
4:00 AM,34,33,94,30.44,,ESE,3.5,,,,,120,2012-11-19 09:00:00
4:00 AM,33.8,32.9,96,30.44,-9999.0,ESE,3.5,-,N/A,,Unknown,120,2012-11-19 09:00:00
5:00 AM,33.3,31.6,94,30.45,-9999.0,ESE,3.5,-,N/A,,Unknown,120,2012-11-19 10:00:00
6:00 AM,37.8,37.8,100,30.76,-9999.0,SE,3.5,-,N/A,,Unknown,130,2012-11-19 11:00:00
7:00 AM,54,,,31.42,,SSE,2.3,,,,,150,2012-11-19 12:00:00
7:00 AM,30.2,-9999,N/A,-9999,-9999.0,North,-9999.0,-,N/A,,Unknown,0,2012-11-19 12:00:00
8:00 AM,42.3,42.3,100,30.84,-9999.0,ESE,2.3,-,N/A,,Unknown,120,2012-11-19 13:00:00
9:00 AM,38.1,38.1,100,30.62,-9999.0,SSE,3.5,-,N/A,,Unknown,160,2012-11-19 14:00:00
10:00 AM,39,39,100,30.61,,South,3.5,,,,,170,2012-11-19 15:00:00
10:00 AM,39.0,39.0,100,30.61,-9999.0,South,3.5,-,N/A,,Unknown,170,2012-11-19 15:00:00
11:00 AM,41.7,40.6,96,30.42,-9999.0,South,4.6,-,N/A,,Unknown,180,2012-11-19 16:00:00
12:00 PM,47.1,39.6,75,30.52,-9999.0,South,4.6,-,N/A,,Unknown,190,2012-11-19 17:00:00
1:00 PM,47,35,53,30.35,,SSW,6.9,,,,,200,2012-11-19 18:00:00
1:00 PM,46.9,35.4,64,30.35,-9999.0,SSW,6.9,-,N/A,,Unknown,200,2012-11-19 18:00:00
2:00 PM,47.5,36.5,66,30.33,-9999.0,SSW,4.6,-,N/A,,Unknown,200,2012-11-19 19:00:00
3:00 PM,46.8,36.1,67,30.34,-9999.0,SSW,5.8,-,N/A,,Unknown,210,2012-11-19 20:00:00
4:00 PM,53,46,69,30.59,,South,2.3,,,,,190,2012-11-19 21:00:00
4:00 PM,52.7,45.7,77,30.59,-9999.0,South,2.3,-,N/A,,Unknown,190,2012-11-19 21:00:00
5:00 PM,45.7,40.1,81,30.40,-9999.0,South,3.5,-,N/A,,Unknown,170,2012-11-19 22:00:00
6:00 PM,46.0,42.6,88,30.51,-9999.0,SE,2.3,-,N/A,,Unknown,130,2012-11-19 23:00:00
7:00 PM,43,39,82,30.43,,SSE,2.3,,,,,150,2012-11-20 00:00:00
7:00 PM,43.0,39.4,87,30.43,-9999.0,SSE,2.3,-,N/A,,Unknown,150,2012-11-20 00:00:00
8:00 PM,45.9,42.6,88,30.53,-9999.0,South,5.8,-,N/A,,Unknown,170,2012-11-20 01:00:00
9:00 PM,47.7,46.0,94,30.68,-9999.0,South,4.6,-,N/A,,Unknown,170,2012-11-20 02:00:00
10:00 PM,47,46,95,30.66,,South,3.5,,,,,180,2012-11-20 03:00:00
10:00 PM,46.9,46.0,97,30.66,-9999.0,South,3.5,-,N/A,,Unknown,180,2012-11-20 03:00:00
11:00 PM,57.2,57.2,100,31.00,-9999.0,South,4.6,-,N/A,,Unknown,190,2012-11-20 04:00:00